Weather in Shumerlya

Russia / Chuvash Republic     55°31′22″N   46°22′31″E
temp.,
°C
wind,
m/s
gust,
m/s
humid.,
%
clouds,
%
prec.,
mm/h
press.,
hPa
HPBL,
m
1 august, sun
sun100:00+18sw26720 0.0 1008104
03:00+16wsw227988 0.0 100922
06:00+17wsw147446 0.0 1011108
09:00+23w345023 0.0 1012667
12:00+27w4636100 0.0 10121887
15:00+27w4636100 0.0 10122088
18:00+24wnw1256100 0.0 1012105
21:00+18ssw116629 0.0 101311
2 august, mon
mon200:00+17s2270100 0.0 101325
03:00+16s2274100 0.0 101316
06:00+19s257199 0.0 1013131
09:00+26ssw47507 0.0 1013542
12:00+31sw583532 0.0 10122123
15:00+32sw4732100 0.0 10113020
18:00+28s39465 0.0 1010403
21:00+23sse37585 0.0 1010104
3 august, tue
tue300:00+20se237354 0.1 100949
03:00+22s516628 0.1 1008409
06:00+22s412625 0.0 1008335
09:00+29ssw594113 0.0 1007627
12:00+32sw363465 0.0 10071558
15:00+26wsw2757100 0.1 1007241
18:00+25sse376640 0.1 1007347
21:00+20wsw2276100 0.2 100831
4 august, wed
wed400:00+19wsw1187100 0.1 100911
03:00+18sw13100100 11.6 1010126
06:00+18wnw2496100 1.7 1011231
09:00+20nw3485100 1.7 1011550
12:00+24wnw345688 0.1 10121546
15:00+22ne1274100 0.7 101283
18:00+20w1179100 0.4 101318
21:00+18nw2572100 0.4 1014101
5 august, thu
thu500:00+18nnw246596 0.0 101593
03:00+17nnw236299 0.0 101683
06:00+16nw2471100 0.0 1017130
09:00+21nnw354733 0.0 1017691
12:00+24nnw34371 0.0 10171779
15:00+25nw343425 0.0 10172256
18:00+22n255138 0.0 1017157
21:00+15ne22586 0.0 101838